Showing default

GORIZONT 19, 20263

Orbit data source: Space-Track

GORIZONT 19, 20263 is a payload satellite owned by MSvyaz (CIS) in GEO that was launched on Thu, 28 Sep 1989 UTC via a PROTON-K/DM-2 launch vehicle from the Tyuratam Missile And Space Complex (TTMTR). Payload-class satellites include a variety of spacecraft equipped with specific instruments for various scientific and technological missions. These include communications satellites like Starlink; space stations such as the ISS; scientific satellites like the Hubble; Earth observation satellites from companies like Planet Labs, Umbra, and HawkEye 360; GPS; miniature CubeSats for education and research; and military/defense satellites.

Not visible in the next 10 days
Identifier
20263, 1989-081A
Orbit
GEO
Country
Flag of CISCIS
Related business
Manufacturer
NPO PM
Mission
Non-operational Civil Communications
Bus & Motor
GORIZONT, Unknown motor
Mass
2,120 kg wet, ~2,000 kg dry
Launch date (UTC)
1989-09-28 (36 years ago)
Launch vehicle
PROTON-K/DM-2
Launch site
Tyuratam Missile And Space Complex (TTMTR)
Object type
Payload
Rocket body
Debris
Shape & HBR
Cyl + 2 Pan, 4.8 m
Radar Cross Section
23.870 m², Large (>1 m²)

Expand to show TLE details & history
Last TLE update: 5 hours ago

TLE from 5 hours ago
0 GORIZONT 19
1 20263U 89081A   25310.80971177 -.00000371  00000-0  00000+0 0  9991
2 20263  12.3225 334.9840 0006400 266.0061 210.6714  1.00272212 45111
Epoch: 2025-11-06T19:25Z
TLE epoch observation values (Epoch: 2025-11-06T19:25:59.096Z)
Latitude
11.00315°
Longitude
114.38672°
Altitude
35,808.632 km
Speed
3.073 km/s
True Right ascension
06h 08m 34s
True Declination
10° 59' 32"
Sunlit
Object was in daylight at epoch
Visualization orbit readout
Latitude
Unknown
Longitude
Unknown
Altitude
Unknown
Speed
Unknown
Apparent Right ascension
Unknown
Apparent Declination
Unknown
Sunlit
N/A
Visualization observer readout
Local Sidereal Time
20:15:33
Azimuth
Unknown
Elevation
Unknown
Doppler factor
Unknown
Orbital elements
Apogee altitude
35,814.46 km
Perigee altitude
35,760.488 km
Semi-major axis
42,165.611 km
Eccentricity
0.00064
Inclination
12.3225°
RAAN
334.984°
Arg. of periapsis
266.0061°
True anomaly
210.63401°
Mean anomaly
210.6714°
Eccentric anomaly
210.6527°
Mean motion
0.25067 °/min
Orbital period
1,436.14 mins
BSTAR
0
Loading maneuver chart data...
Computing Atmospheric mass density...
Loading historical data...
Loading historical data...
Loading historical data...
Loading historical data...
Loading historical data...
Loading historical data...
Loading historical data...

Documentation

Showing up to 5 results
|